This is the latest recevied weather packets stored in our database for station/object VA6GSB-13. If no packets are shown the sender has not sent any weather packets the latest 10 day(s).
| Time | Temp. | Humidity | Pressure | Rain* | Wind** | Luminosity | Snow |
|---|---|---|---|---|---|---|---|
| 1787680240 | 23.33° C | 43% | 1023 hPa | 0 mm | - | 686 W/m² | - |
| 1787679941 | 22.78° C | 45% | 1023 hPa | 0 mm | - | 680 W/m² | - |
| 1787679639 | 22.78° C | 44% | 1023 hPa | 0 mm | - | 671 W/m² | - |
| 1787679563 | 22.78° C | 43% | 1022.8 hPa | 0 mm | - | 670 W/m² | - |
| 1787679264 | 22.78° C | 46% | 1022.8 hPa | 0 mm | - | 661 W/m² | - |
| 1787678964 | 22.78° C | 46% | 1022.9 hPa | 0 mm | - | 653 W/m² | - |
| 1787678740 | 22.22° C | 47% | 1023 hPa | 0 mm | - | 646 W/m² | - |
| 1787678440 | 22.22° C | 47% | 1023 hPa | 0 mm | - | 637 W/m² | - |
| 1787678140 | 22.22° C | 51% | 1023 hPa | 0 mm | - | 628 W/m² | - |
| 1787677839 | 21.67° C | 49% | 1023 hPa | 0 mm | - | 620 W/m² | - |
| 1787677763 | 21.67° C | 49% | 1023 hPa | 0 mm | - | 618 W/m² | - |
| 1787677541 | 21.67° C | 49% | 1023 hPa | 0 mm | - | 611 W/m² | - |
| 1787677464 | 21.67° C | 49% | 1023 hPa | 0 mm | - | 607 W/m² | - |
| 1787677240 | 21.67° C | 50% | 1023 hPa | 0 mm | - | 601 W/m² | - |
| 1787677163 | 21.67° C | 50% | 1023.1 hPa | 0 mm | - | 599 W/m² | - |
| 1787676940 | 21.11° C | 54% | 1023 hPa | 0 mm | - | 590 W/m² | - |
| 1787676864 | 21.11° C | 52% | 1023.1 hPa | 0 mm | - | 588 W/m² | - |
| 1787676264 | 21.11° C | 55% | 1023.1 hPa | 0 mm | - | 565 W/m² | - |
| 1787675740 | 20.56° C | 58% | 1023 hPa | 0 mm | - | 548 W/m² | - |
| 1787675664 | 20.56° C | 58% | 1023.2 hPa | 0 mm | - | 544 W/m² | - |
| 1787675364 | 20.56° C | 59% | 1023.2 hPa | 0 mm | - | 532 W/m² | - |
| 1787674764 | 20° C | 59% | 1023.2 hPa | 0 mm | - | 507 W/m² | - |
| 1787674540 | 20° C | 58% | 1023 hPa | 0 mm | - | 500 W/m² | - |
| 1787674464 | 20° C | 58% | 1023.2 hPa | 0 mm | - | 498 W/m² | - |
| 1787674164 | 19.44° C | 61% | 1023.2 hPa | 0 mm | - | 486 W/m² | - |
* Rain latest hour (hover to see other rain measurements)
** Current wind speed in m/s (hover to see current wind gust speed)